Погода в Масеру

Лесото     29°19′54″S   27°29′21″E
темп.,
°C
ветер,
м/с
пор.,
м/с
влажн.,
%
обл.,
%
осадки,
мм/ч
давл.,
гПа
погр.,
м
19 мая, ср
ср1923:00+7в22350 0.0 102510
02:00+5всв22380 0.0 102410
05:00+5св22390 0.0 102510
08:00+9всв22310 0.0 102542
11:00+18ссв33205 0.0 1022866
14:00+21сз4420100 0.0 10181986
17:00+16ссз3328100 0.0 101921
20:00+13св2239100 0.0 102011
20 мая, чт
чт2023:00+11св2243100 0.0 102011
02:00+10св2244100 0.0 102011
05:00+9св22486 0.0 102012
08:00+11св224479 0.0 102179
11:00+19ссз61028100 0.0 10171363
14:00+21сз7122590 0.0 10132611
17:00+20сз91325100 0.0 1012747
20:00+17зсз8123662 0.0 1015642
21 мая, пт
пт2123:00+13зюз511419 0.0 1018403
02:00+7ююз22510 0.0 101910
05:00+6зсз01570 0.0 102110
08:00+8зюз24560 0.0 1024239
11:00+12юз34334 0.0 10241118
14:00+16зюз46226 0.0 10201401
17:00+13зюз46255 0.0 102196
20:00+8зюз2234100 0.0 102510
22 мая, сб
сб2223:00+5зсз114299 0.0 102610
02:00+4ссв1147100 0.0 102610
05:00+3в114899 0.0 102710
08:00+7вюв113739 0.0 102826
11:00+14ссв11210 0.0 1027936
14:00+17ссз23140 0.0 10231576
17:00+14з34180 0.0 102434
20:00+7зсз01290 0.0 102610
23 мая, вс
вс2323:00+6всв11310 0.0 102710
02:00+5всв22320 0.0 102810
05:00+4св22350 0.0 102810
08:00+8св22320 0.0 103021
11:00+15ссв34270 0.0 1028797
14:00+19ссз33185 0.0 10241643
17:00+14сз222810 0.0 102411
20:00+9сз114817 0.0 102711